Regional Weather Roundup
Issued by NWS Wakefield, VA

Home | Current Version | Previous Version | Text Only | Print | Product List | Glossary On
Versions: 1 2 3 4 5 6 7 8 9 10 11 12 13 14 15 16 17 18 19 20 21 22 23 24 25 26 27
000
ASUS41 KAKQ 200610
RWRAKQ

REGIONAL WEATHER ROUNDUP
NATIONAL WEATHER SERVICE WAKEFIELD VA
200 AM EDT SUN APR 20 2014

Note: "fair" indicates few or no clouds below 12,000 feet with no
significant weather and/or obstructions to visibility. * = Denotes
station may not report precipitation (e.g., rain,snow,etc.),
thunder or fog.

VAZ042-051-052>054-056-200700-
NORTHERN VIRGINIA

CITY           SKY/WX    TMP DP  RH WIND       PRES   REMARKS
WASH NATIONAL  CLOUDY    55  40  56 NE3       30.33S
DULLES         MOCLDY    50  29  44 NE5       30.32R
FORT BELVOIR   FAIR      47  37  66 CALM      30.32S
QUANTICO       FAIR      50  42  74 NW6       30.32F
FREDERICKSBRG* FAIR      48  43  81 CALM      30.30S
STAFFORD*      FAIR      45  39  80 CALM      30.34F
WARRENTON      FAIR      47  38  71 CALM      30.31S
CULPEPER*      FAIR      46  34  61 CALM      30.32S
MANASSAS*      FAIR      43  39  87 CALM      30.32S
LEESBURG*      FAIR      50  32  50 NE7       30.33S
WINCHESTER     FAIR      48  28  46 CALM      30.32S
$$

VAZ048-049-060>072-079>083-200700-
CENTRAL AND SOUTH CENTRAL VIRGINIA...AND NORTH CENTRAL NORTH CAROLINA

CITY           SKY/WX    TMP DP  RH WIND       PRES   REMARKS
RICHMOND       CLOUDY    51  32  48 N6        30.27F
CHESTERFIELD*  NOT AVBL
HANOVER        FAIR      46  38  73 CALM      30.30F
TAPPAHANNOCK*  FAIR      47  34  59 CALM      30.28F
CHARLOTTSVILLE FAIR      51  32  48 N6        30.29S
ORANGE*        FAIR      46  34  61 N3        30.32S
LOUISA*        FAIR      46  39  76 CALM      30.29S
FARMVILLE*     FAIR      50  41  71 N5        30.26S
SOUTH HILL*    FAIR      52  45  76 N6        30.29S
ROANOKE RAPIDS CLOUDY    54  41  62 NE9       30.21F
RALEIGH        CLOUDY    52  40  63 N8        30.21S
$$

VAZ088>098-200700-
SOUTHEAST VIRGINIA

CITY           SKY/WX    TMP DP  RH WIND       PRES   REMARKS
NORFOLK        FAIR      51  43  74 NE10      30.22F
VIRGINIA BEACH CLOUDY    52  40  63 NE14      30.21F
NORFOLK NAVAL  CLOUDY    52  41  66 NE14      30.24F
WEST POINT*    FAIR      52  36  54 N3        30.28F
NEWPORT NEWS   FAIR      52  41  66 NE6       30.24F
LANGLEY AFB    FAIR      50  43  76 NE8       30.25F
FORT EUSTIS    FAIR      51  41  70 NE5       30.23F
WILLIAMSBURG*  FAIR      50  41  71 CALM      30.26F
FRANKLIN*      FAIR      50  43  76 NE3       30.23F
WAKEFIELD      FAIR      49  39  68 NE3       30.25S
$$

VAZ020-022-025-037-045-200700-
WESTERN AND SOUTHWEST VIRGINIA

CITY           SKY/WX    TMP DP  RH WIND       PRES   REMARKS
STAUNTON*      FAIR      45  35  67 NW3       30.31F
HOT SPRINGS VA FAIR      45  32  61 E9        30.32F
LYNCHBURG      FAIR      54  41  61 N3        30.29S
DANVILLE       FAIR      50  44  80 NE5       30.25F
MARTINSVILLE   FAIR      47  43  88 CALM      30.28S
ROANOKE        CLOUDY    50  41  71 NE3       30.30R
BLACKSBURG     FAIR      52  43  71 E5        30.29S
DUBLIN*        FAIR      46  40  82 CALM      30.28S
MARION*        FAIR      46  37  72 CALM      30.28F
HILLSVILLE*    FAIR      48  36  61 NE6       30.28F
RICHLANDS*     FAIR      55  38  51 E6        30.24S
WISE*          FAIR      54  32  43 CALM      30.24S
ABINGDON*      FAIR      54  36  51 E5        30.23S
$$

MDZ021>025-VAZ099-100-200700-
SOUTHERN MARYLAND AND THE DELMARVA PENINSULA

CITY           SKY/WX    TMP DP  RH WIND       PRES   REMARKS
PATUXENT RIVER FAIR      46  37  71 NW3       30.30S
BAY BRIDGE APT FAIR      50  36  57 N3        30.33R
LEONARDTOWN    FAIR      45  36  70 CALM      30.31F
DOVER          FAIR      43  43 100 N6        30.28S
GEORGETOWN     FAIR      47  38  71 N3        30.31R
EASTON         FAIR      46  39  75 CALM      30.35S
CAMBRIDGE      FAIR      46  36  66 CALM      30.30S
SALISBURY      FAIR      46  38  73 N3        30.30S
OCEAN CITY     FAIR      47  41  80 N5        30.30R
WALLOPS ISLAND FAIR      51  38  60 NE7       30.29S
ACCOMACK*      FAIR      46  34  61 NE6       30.26F
$$

NCZ012>017-030>032-200700-
EASTERN NORTH CAROLINA

CITY           SKY/WX    TMP DP  RH WIND       PRES   REMARKS
ELIZABETH CITY LGT RAIN  52  44  74 NE15      30.19F
AHOSKIE*       FAIR      51  38  62 N7        30.21F
EDENTON*       LGT RAIN  50  44  80 NE7       30.17F
CURRITUCK*     CLOUDY    53  43  69 NE12      30.20F
KILL DEVIL HLS LGT RAIN  50  48  95 N10G18    30.14F
MANTEO         DRIZZLE   51  49  93 NE17G24   30.16F
CAPE HATTERAS  LGT RAIN  53  53 100 NE15G26   30.09F FOG
GOLDSBORO      CLOUDY    50  46  86 NE12G21   30.13F
WASHINGTON     CLOUDY    48  44  85 NE8       30.16F
GREENVILLE     LGT RAIN  48  45  87 NE8       30.18F
NEW BERN       CLOUDY    53  50  89 NE10      30.13F
WILMINGTON     CLOUDY    53  50  89 NE20G30   30.05F
$$

VAZ048-200700-
ELSEWHERE

CITY           SKY/WX    TMP DP  RH WIND       PRES   REMARKS
HARRISBURG PA  MOCLDY    47  31  53 CALM      30.36R
BALTIMORE      MOCLDY    48  36  63 CALM      30.31F
ANNAPOLIS      FAIR      50  42  74 CALM      30.32S
ANDREWS AFB    FAIR      46  37  71 N2        30.32R
WILMINGTON DE  FAIR      47  40  76 NW7       30.34S
PHILADELPHIA   MOCLDY    49  37  63 E3        30.36R
WILDWOOD NJ*   FAIR      45  37  76 N3        30.33R
ATLANTIC CITY  FAIR      41  35  79 N8        30.32S
HENDERSON NC   FAIR      51  39  64 N5        30.23F
GREENSBORO     MOCLDY    53  42  66 NE9       30.22F
ROCKY MOUNT    MOCLDY    50  45  83 CALM      30.19F
FAYETTEVILLE   CLOUDY    51  43  74 N13       30.14F
CHARLOTTE      LGT RAIN  51  47  86 NE9       30.19F
$$

VAZ100-200700-
MARINE

STATION/POSITION TIME  TEMP    WIND        PRES    WAVE   SWELL
                       AIR SEA DIR/SP/G            HT/PER HT/PER
                 (UTC) (F)     (DEG/KT/KT) (MB)    (FT/S) (FT/S)
44066 TX TWR #4  0600   46 44   60/  8/ 10 1026.7S   3/10   3/10
CAPE MAY NJ      0600   48 54   30/  2/  4 1026.1R
LEWES DE         0600   50 49   10/  6/  7 1025.6R
15NM E FENWICK I 0600   48 46              1025.8R   3/10
OCEAN-CITY-INLET 0600   49 48   30/  4/  6 1025.6S
WACHAPREAGUE VA  0600   51 52   30/ 10/ 14 1024.2F
THOMAS POINT MD  0600   53 53   10/  6/  6 1027.4R
GOOSES REEF MD   0600   52      10/  4/  4 1027.3S
COVE POINT MD    0600   51      10/  2/  3 1026.2R
SOLOMONS ISLAND  0600      54                N/A
BISHOPS HEAD MD  0600   52 54   30/  8/  9 1025.5F
PINEY POINT MD   0600           50/  5/  5   N/A
POTOMAC MD       0600   53      60/  8/ 10 1025.0F
CAMBRIDGE MD     0600   52 56   20/  3/  4 1025.9R
LEWISETTA VA     0600   53 54   40/  5/  7 1025.1F
RAPPAHANNOCK LGT 0600           40/ 13/ 14 1024.9F
STINGRAY PT      0600   53      60/ 10/ 12 1024.7F
YORK RVR RNG VA  0600   52      40/ 12/ 14 1023.5F
YORKTOWN VA      0600   53 54   40/  8/  9 1024.1F
JAMESTOWN VA     0600   51      70/  4/  8   N/A
DOMINION TERM VA 0600   53      30/  8/ 12 1023.8F
KIPTOPEKE VA     0600      52   50/  5/ 10   N/A
CHES BAY BRIDGE  0600   51 51   20/ 15/ 18 1023.1F
CAPE HENRY VA    0600   50      30/ 18/ 20   N/A
CHESAPEAKE LGHT  0500   49      40/ 20/ 21 1023.8F
WILLOUBY STN VA  0600   52      40/ 14/ 15 1022.8F
S CRANEY ISL VA  0600           20/ 13/ 15 1023.6F
CAPE HENRY BUOY  0600      47                N/A     4/ 8   2/11
1ST LANDING BUOY 0600      46                N/A     4/ 9   3/ 9
64NM E OF VA BCH 0600   52 49   20/ 19/ 23 1020.8F   8/ 8   3/10
DUCK PIER NC     0600   50 49   20/ 19/ 21 1020.8F
44100 DUCK FRF   0600      48                N/A     7/ 8   2/11
44056 DUCK FRF   0500      47                N/A     6/ 8   2/11
OREGON INLET NC  0600   50 51  360/ 13/ 18 1020.5F
HATTERAS NC      0600   55 56   20/ 10/ 22 1019.3F
CAPE LOOKOUT NC  0500   56      20/ 21/ 27 1018.1R
FRYING PAN SHLS  0600   62 68   50/ 31/ 39 1013.4F  11/ 7   3/11
$$



USA.gov is the U.S. government's official web portal to all federal, state and local government web resources and services.